Home > Weather > Bordeaux > Past weeks

Flag for France Past Weather in Bordeaux, Aquitaine, France — Yesterday and Last 2 Weeks

Now
68 °F

Partly sunny.


Feels Like: 68 °F
Forecast: 58 / 65 °F
Wind: 23 mph from West

Location: Bordeaux / Merignac

Current Time: May 31, 2016 at 4:14:01 PM

Latest Report: May 31, 2016 at 3:30 PM


Visibility: N/A

Pressure: 30.09 "Hg

Humidity: 56%

Dew Point: 52 °F

Location of BordeauxLocation

Past Weather in Bordeaux — Graph

°F

Bordeaux Temperature Yesterday

Maximum temperature yesterday: 64 °F (at 11:30 AM)
Minimum temperature yesterday: 57 °F (at 12:30 AM)
Average temperature yesterday: 60 °F

High & Low Weather Summary for the Past Weeks

 TemperatureHumidityPressure
High88 °F (May 21, 2:00 PM)100% (May 17, 4:30 AM)30.24 "Hg (May 17, 4:30 AM)
Low45 °F (May 18, 6:30 AM)31% (May 21, 1:30 PM)29.77 "Hg (May 21, 7:30 PM)
Average62 °F74%29.99 "Hg
* Reported May 16 3:00 PM — May 31 3:00 PM, Bordeaux, Weather by CustomWeather, © 2016

Note: Actual official high and low records may vary slightly from our data, if they occured in-between our weather recording intervals... More about our weather records

Advertising

Bordeaux Weather History for the Previous 24 Hours

Scroll right to see more
 ConditionsComfort  
Time TempWeatherWind HumidityBarometerVisibility
3:00 PM
Tue, May 31
68 °FPartly sunny.18 mph60%30.09 "HgN/A
2:30 PM68 °FPartly sunny.20 mph56%30.09 "HgN/A
2:00 PM68 °FBroken clouds.20 mph60%30.09 "HgN/A
1:30 PM66 °FPartly sunny.16 mph64%30.09 "HgN/A
1:00 PM66 °FPartly sunny.17 mph68%30.09 "HgN/A
12:30 PM64 °FPartly sunny.13 mph68%30.09 "HgN/A
12:00 PM64 °FBroken clouds.13 mph73%30.09 "HgN/A
11:30 AM63 °FPartly sunny.13 mph77%30.09 "HgN/A
11:00 AM61 °FScattered clouds.9 mph83%30.09 "HgN/A
10:30 AM61 °FPartly sunny.12 mph83%30.09 "HgN/A
10:00 AM61 °FPartly sunny.10 mph83%30.09 "HgN/A
9:30 AM61 °FMore clouds than sun.10 mph83%30.07 "HgN/A
9:00 AM61 °FPartly sunny.12 mph88%30.07 "HgN/A
8:30 AM61 °FLow clouds.9 mph94%30.07 "HgN/A
8:00 AM61 °FMostly cloudy.8 mph94%30.04 "Hg5 mi
7:30 AM59 °FMore clouds than sun.8 mph94%30.04 "Hg4 mi
7:00 AM59 °FMostly cloudy.7 mph94%30.04 "Hg4 mi
6:30 AM59 °FOvercast.8 mph94%30.04 "Hg4 mi
6:00 AM59 °FOvercast.9 mph94%30.04 "Hg4 mi
5:30 AM59 °FOvercast.9 mph94%30.04 "Hg4 mi
5:00 AM59 °FLow clouds.8 mph94%30.04 "Hg4 mi
4:30 AM59 °FFog.8 mph94%30.04 "Hg3 mi
4:00 AM59 °FFog.9 mph94%30.04 "Hg3 mi
3:30 AM59 °FFog.10 mph94%30.04 "Hg3 mi
3:00 AM59 °FFog.9 mph94%30.04 "Hg3 mi
2:30 AM59 °FLight rain. Fog.8 mph94%30.04 "Hg3 mi
2:00 AM59 °FDrizzle. Mostly cloudy.7 mph94%30.07 "Hg4 mi
1:30 AM59 °FLight rain. Mostly cloudy.7 mph94%30.07 "Hg4 mi
1:00 AM59 °FPartly cloudy.9 mph94%30.07 "Hg4 mi
12:30 AM59 °FPartly cloudy.9 mph94%30.07 "Hg4 mi
12:00 AM59 °FPartly cloudy.9 mph94%30.07 "Hg4 mi
11:30 PM
Mon, May 30
59 °FPassing clouds.8 mph94%30.07 "Hg4 mi
11:00 PM59 °FPassing clouds.8 mph94%30.07 "Hg5 mi
10:30 PM59 °FLight rain. Partly sunny.9 mph94%30.07 "Hg5 mi
10:00 PM59 °FBroken clouds.9 mph94%30.04 "HgN/A
9:30 PM59 °FPartly sunny.9 mph94%30.04 "HgN/A
9:00 PM59 °FLight rain. Mostly cloudy.8 mph94%30.04 "Hg5 mi
8:30 PM59 °FLight rain. Mostly cloudy.8 mph94%30.04 "Hg6 mi
8:00 PM59 °FLight rain. Partly sunny.9 mph94%30.04 "Hg4 mi
7:30 PM59 °FLight rain. Mostly cloudy.10 mph94%30.04 "Hg6 mi
7:00 PM59 °FLight rain. Mostly cloudy.12 mph88%30.01 "HgN/A
6:30 PM59 °FLight rain. Partly sunny.9 mph88%30.01 "HgN/A
6:00 PM59 °FLight rain. Mostly cloudy.12 mph88%30.01 "HgN/A
5:30 PM57 °FLight rain. Mostly cloudy.13 mph94%30.01 "Hg5 mi
5:00 PM57 °FLight rain. More clouds than sun.16 mph88%30.01 "HgN/A
4:30 PM59 °FLight rain. Partly sunny.17 mph82%30.01 "HgN/A
4:00 PM61 °FBroken clouds.18 mph77%30.01 "HgN/A
Weather by CustomWeather, © 2016

See weather overviewHow to use our weather pages